Weather History for Cape Girardeau, MO

Change the Weather History Date:

Monday, November 26, 2012

  Actual Average Record
Temperature  
Mean Temperature 42 °F 42 °F  
Max Temperature 52 °F 52 °F 72 °F (1965)
Min Temperature 31 °F 33 °F 12 °F (1977)
Degree Days  
Heating Degree Days 23 23  
Month to date heating degree days 491 453  
Since 1 July heating degree days 836 756  
Cooling Degree Days 0 0  
Month to date cooling degree days 0 0  
Year to date cooling degree days 1784 1451  
Moisture  
Dew Point 33 °F    
Average Humidity 77    
Maximum Humidity 100    
Minimum Humidity 54    
Precipitation  
Precipitation 0.08 in 0.16 in 1.87 in (1978)
Month to date precipitation 1.32 3.81  
Year to date precipitation 25.28 41.93  
Sea Level Pressure  
Sea Level Pressure 30.14 in    
Wind  
Wind Speed 7 mph (NNE)    
Max Wind Speed 22 mph    
Max Gust Speed 30 mph    
Visibility 10 miles    
Events Rain    
T = Trace of Precipitation, MM = Missing Value Source: NWS Daily Summary

Daily Weather History Graph

Daily Weather History Graph

Search for Another Location

Airport:

Trip Planner

Search our weather history database for the weather conditions in past years. The results will help you decide how hot, cold, wet, or windy it might be!

Date:

Astronomy

Nov. 26, 2012 Rise Set
Actual Time 6:49 AM CST 4:42 PM CST
Civil Twilight 6:20 AM CST 5:10 PM CST
Nautical Twilight 5:48 AM CST 5:42 PM CST
Astronomical Twilight 5:17 AM CST 6:13 PM CST
Moon 3:33 PM CST (11/26) 5:00 AM CST (11/26)
Length of Visible Light 10h 49m
Length of Day
9h 53m
Waxing Gibbous, 97% of the Moon is Illuminated
Nov 26
Waxing Gibbous
Nov 28
Full
Dec 6
Last Quarter
Dec 13
New
Dec 19
First Quarter

Hourly Weather History & Observations

Time (CST) Temp. Windchill Dew Point Humidity Pressure Visibility Wind Dir Wind Speed Gust Speed Precip Events Conditions
12:53 AM 34.0 °F 28.8 °F 30.9 °F 89% 30.05 in 10.0 mi East 5.8 mph - N/A   Clear
1:53 AM 34.0 °F 31.0 °F 30.0 °F 85% 30.05 in 10.0 mi East 3.5 mph - N/A   Clear
2:53 AM 34.0 °F - 30.9 °F 89% 30.05 in 10.0 mi Calm Calm - N/A   Clear
3:53 AM 34.0 °F - 32.0 °F 92% 30.06 in 10.0 mi Calm Calm - N/A   Clear
4:53 AM 32.0 °F - 30.0 °F 92% 30.06 in 10.0 mi Calm Calm - N/A   Clear
5:53 AM 30.9 °F - 30.0 °F 96% 30.06 in 10.0 mi Calm Calm - N/A   Clear
6:53 AM 32.0 °F - 28.9 °F 88% 30.09 in 10.0 mi Calm Calm - N/A   Mostly Cloudy
7:53 AM 39.0 °F 35.7 °F 35.1 °F 86% 30.09 in 10.0 mi ENE 4.6 mph - N/A   Clear
8:53 AM 41.0 °F 38.0 °F 35.1 °F 79% 30.12 in 10.0 mi East 4.6 mph - N/A   Scattered Clouds
9:53 AM 46.0 °F 44.8 °F 35.1 °F 66% 30.13 in 10.0 mi NNE 3.5 mph - N/A   Overcast
10:53 AM 48.0 °F - 33.1 °F 56% 30.12 in 10.0 mi NNE 3.5 mph - 0.00 in Rain Light Rain
11:53 AM 48.0 °F - 35.1 °F 61% 30.10 in 10.0 mi NE 8.1 mph - 0.00 in   Overcast
12:53 PM 52.0 °F - 35.1 °F 53% 30.08 in 10.0 mi NE 11.5 mph - N/A   Overcast
1:53 PM 50.0 °F - 37.0 °F 61% 30.10 in 10.0 mi North 6.9 mph - 0.00 in   Overcast
2:53 PM 50.0 °F - 37.0 °F 61% 30.12 in 10.0 mi North 4.6 mph - N/A   Overcast
3:53 PM 45.0 °F 38.9 °F 39.9 °F 82% 30.12 in 8.0 mi NNE 12.7 mph - 0.03 in Rain Light Rain
4:53 PM 44.1 °F 38.1 °F 37.9 °F 79% 30.17 in 10.0 mi NNE 11.5 mph - 0.01 in Rain Light Rain
5:53 PM 44.1 °F 37.1 °F 35.1 °F 71% 30.18 in 10.0 mi North 15.0 mph 21.9 mph 0.00 in   Overcast
6:53 PM 39.9 °F 32.1 °F 34.0 °F 79% 30.25 in 6.0 mi North 13.8 mph - 0.01 in Rain Rain
7:53 PM 39.9 °F 31.1 °F 34.0 °F 79% 30.25 in 9.0 mi NNE 17.3 mph 24.2 mph 0.02 in Rain Light Rain
8:53 PM 37.0 °F 27.4 °F 34.0 °F 89% 30.27 in 8.0 mi NNE 17.3 mph 24.2 mph 0.00 in Rain Light Rain
9:53 PM 37.0 °F 31.6 °F 33.1 °F 86% 30.30 in 10.0 mi North 6.9 mph - 0.01 in   Overcast
10:53 PM 37.0 °F 29.8 °F 30.0 °F 76% 30.31 in 10.0 mi North 10.4 mph - N/A   Overcast
11:53 PM 36.0 °F 26.7 °F 28.0 °F 73% 30.32 in 10.0 mi North 15.0 mph - N/A   Overcast